204P/LINEAR-NEAT (2008)

Japanese version
Home page
Total 6,336 html files since Dec. 4, 1995
Updated on November 9, 2008

---------------------------------------------------------------------

* Profile

Designation 204P/2008 R5
Recovery Date September 8, 2008
Magnitude
Recoverer J. V. Scotti (Spacewatch), G. V. Williams (Minor Planet Center)

* Orbital Elements

Epoch 2008 Nov. 30.0 TT = JDT 2454800.5
T 2008 Dec.  9.27116 TT                                 MPC
q   1.9402351            (2000.0)            P               Q
n   0.14049050     Peri.  355.03882     -0.24491992     -0.96347594
a   3.6646971      Node   109.10646     +0.89343474     -0.26766296
e   0.4705606      Incl.    6.58120     +0.37654826     +0.00840514
P   7.02

* Finding Charts

* Magnitudes Graph

        m1 = 4.5 + 5 log d + 40 log r(t - 50)

---------------------------------------------------------------------

The orbital elements are published on M.P.E.C. 2008-R54.
The charts are made with StellaNavigator Ver.8 (AstroArts).
The magnitudes graphs are made with Comet for Windows.

---------------------------------------------------------------------

Copyright(C) 1995-2008 Seiichi Yoshida (comet@aerith.net). All rights reserved.